Tracking 30072 objects as of 14-Jan-2025
HD Live streaming from Space Station
objects crossing your sky now

COSMOS 1408 DEB

Track COSMOS 1408 DEB now!
10-day predictions


NORAD ID: 50404
Int'l Code: 1982-092ADS
Perigee: 446.5 km
Apogee: 919.4 km
Inclination: 82.2 °
Period: 98.3 minutes
Semi major axis: 7053 km
RCS: Unknown
Launch date: September 16, 1982
Source: Commonwealth of Independent States (former USSR) (CIS)
Launch site: PLESETSK MISSILE AND SPACE COMPLEX (PKMTR)

Note: This is SATELLITE DEBRIS
Your satellite tracking list
Your tracking list is empty




NASA's NSSDC Master Catalog

Two Line Element Set (TLE):
1 50404U 82092ADS 25013.44059194  .00075978  00000-0  59944-2 0  9990
2 50404  82.2308 182.4788 0335206 220.0510 137.5546 14.65385003162370
Source of the keplerian elements: AFSPC